Weather in Semenovskoye

Russia / Chuvash Republic     55°06′24″N   46°12′43″E
temp.,
°C
wind,
m/s
gust,
m/s
humid.,
%
clouds,
%
prec.,
mm/h
press.,
hPa
HPBL,
m
28 september, tue
tue2800:00+5ne6986100 0.3 1021722
03:00+4ne61084100 0.3 1023813
06:00+4ne61182100 0.0 1025711
09:00+5ne69735 0.0 1026688
12:00+8ne57555 0.0 10271168
15:00+9ne67486 0.0 10281379
18:00+6nne37655 0.0 1029128
21:00+3nne357339 0.0 1030110
29 september, wed
wed2900:00+3nne247778 0.0 103186
03:00+2n238228 0.0 103156
06:00+1n348642 0.0 103283
09:00+5n3567100 0.0 1032364
12:00+8n345347 0.0 10321059
15:00+9n454851 0.0 10311296
18:00+6n226356 0.0 103128
21:00+4n2270100 0.0 103122
30 september, thu
thu3000:00+4nnw227586 0.0 103223
03:00+4nnw227982 0.0 103243
06:00+4nnw248377 0.0 1032136
09:00+6nnw3480100 0.0 1033307
12:00+8nnw227398 0.0 1032519
15:00+11nw245895 0.0 10311101
18:00+9wnw3669100 0.0 1031183
21:00+9nw2574100 0.0 1031166
1 october, fri
fri100:00+7nw348463 0.0 103171
03:00+8wnw2585100 0.0 1031163
06:00+8nw37885 0.0 1031251
09:00+10nnw468137 0.0 1032412
12:00+14nnw456114 0.0 1031892
15:00+15nnw46535 0.0 10311064
18:00+11nw22746 0.0 103118
21:00+10nw228640 0.0 103227
2 october, sat
sat200:00+9nw229233 0.0 103226
03:00+8nw229299 0.0 103322
06:00+9wnw2287100 0.0 103247
09:00+11nw2484100 0.1 1033187
12:00+12nw2378100 0.0 1033361
15:00+12nw2376100 0.0 1033480
18:00+11nw2283100 0.0 103324
21:00+11wnw1184100 0.0 103410